DELTA 1 DEB, 42563

Orbit data source: Space-Track

DELTA 1 DEB, 42563 is space debris in SSO originally from a launch on Sun, 23 Jul 1972 UTC launched from the Air Force Western Test Range (AFWTR). Debris objects in space refer to the collection of defunct objects orbiting the Earth. Examples of debris include non-operational satellites, rocket bodies, and fragments generated from explosions, collisions, or faulty payload assembly.

Loading next visibility...
Identifier
42563, 1972-058JW
Orbit
SSO
Country
Flag of USUS
Related business
Manufacturer
Unknown
Mission
Spacecraft
Bus & Motor
Unknown
Mass
Unknown
Launch date (UTC)
1972-07-23 (54 years ago)
Launch vehicle
Unknown
Launch site
Air Force Western Test Range (AFWTR)
Object type
Payload
Rocket body
Debris
Shape & HBR
Unknown shape, 0.1 m
Radar Cross Section
Small (<0.1 m²)

Expand to show TLE details & history
Last TLE update: 1 day ago

TLE from 1 day ago
0 DELTA 1 DEB
1 42563U 72058JW  26149.30527997  .00000387  00000-0  35406-3 0  9995
2 42563  98.8327 269.8957 0249703 109.3867 253.4456 13.75113609621110
Epoch: 2026-05-29T07:19Z
TLE epoch observation values (Epoch: 2026-05-29T07:19:36.189Z)
Latitude
0.00001°
Longitude
-86.84266°
Altitude
1,040.663 km
Speed
7.303 km/s
True Right ascension
17h 59m 34s
True Declination
0° 00' 00"
Sunlit
Object was in full shadow at epoch
Visualization orbit readout
Latitude
Unknown
Longitude
Unknown
Altitude
Unknown
Speed
Unknown
Apparent Right ascension
Unknown
Apparent Declination
Unknown
Sunlit
N/A
Visualization observer readout
Local Sidereal Time
00:56:43
Azimuth
Unknown
Elevation
Unknown
Doppler factor
Unknown
Orbital elements
Apogee altitude
1,162.189 km
Perigee altitude
794.794 km
Semi-major axis
7,356.629 km
Eccentricity
0.02497
Inclination
98.8327°
RAAN
269.8957°
Arg. of periapsis
109.3867°
True anomaly
250.72802°
Mean anomaly
253.4456°
Eccentric anomaly
252.08428°
Mean motion
3.43973 °/min
Orbital period
104.66 mins
BSTAR
0.00035406
Loading maneuver chart data...
Computing Atmospheric mass density...
Loading historical data...
Loading historical data...
Loading historical data...
Loading historical data...
Loading historical data...
Loading historical data...
Loading historical data...

Documentation

Showing up to 5 results
|